Weather in Leboter

Russia / Tomsk District     57°52′39″N   83°10′31″E
temp.,
°C
wind,
m/s
gust,
m/s
humid.,
%
clouds,
%
prec.,
mm/h
press.,
hPa
HPBL,
m
20 june, sun
sun2001:00+8wnw4983100 0.1 1003500
04:00+7w488498 0.0 1003561
07:00+7w3682100 0.0 1004640
10:00+9w4566100 0.0 10041205
13:00+10wsw3462100 0.1 10051237
16:00+11sw3557100 0.0 10061510
19:00+11ssw246098 0.0 1005947
22:00+9s22745 0.0 100622
21 june, mon
mon2101:00+8se2673100 0.0 1007143
04:00+8se267290 0.0 1006149
07:00+10sse23755 0.0 1007175
10:00+15ese33532 0.0 10071113
13:00+17se334399 0.0 10071975
16:00+19se1239100 0.0 10071812
19:00+12ssw3781100 0.1 1008260
22:00+10se1298100 2.1 100867
22 june, tue
tue2201:00+9ese1499100 4.0 1008194
04:00+9ese1499100 0.4 1007170
07:00+10se1298100 0.4 1007144
10:00+12ese128960 0.0 1007459
13:00+16ssw1171100 1.1 1007990
16:00+16nw2177100 1.9 1008780
19:00+15n3482100 3.5 1008625
22:00+12nnw41095100 2.3 1008358
23 june, wed
wed2301:00+10nnw41196100 2.6 1007387
04:00+9nw3898100 0.7 1006325
07:00+10nnw4999100 9.9 1004495
10:00+10nw3599100 7.3 1005289
13:00+12sw128999 7.7 1006571
16:00+13s338376 0.6 1007759
19:00+12s3484100 0.7 1008667
22:00+10sse2596100 0.1 1008397
24 june, thu
thu2401:00+9sse259770 0.1 1008313
04:00+7se259955 0.0 1009129
07:00+9se249337 0.0 1010225
10:00+14se246798 0.0 10101078
13:00+17e235999 0.3 10101503
16:00+18ene245699 0.3 10101406
19:00+18ene2472100 0.9 1011602
22:00+12nw229221 0.8 101133